Terug naar catalogus

STARLINK-34780

ActiefCommunicatieSSO
NORAD 65074·PAYLOAD·🇺🇸 United States

Gelanceerd Jul 31, 2025 vanaf Vandenberg Space Force Base

Loading…

Volgende Passages (komende 24 uur)

TLE

VersSource: CelesTrak SupGP

Epoch: Sep 15, 2026, 03:34 UTC

1 65074C 25165U   26258.14909722  .02198100  00000+0  74538-1 0  2584
2 65074  97.2842 329.4179 0001757  84.5826 268.9720 15.29493787    14

Volg STARLINK-34780 in realtime met AllMySat

Download on the App Store